Dades meteomassalio
Diari Summary for Gener 29, 2017 Units:  Metric    English   Both
« Previous Day
Next Day »
Diari Semanal Mensual Anual Personalitzat
  Maxima: Minima: Mijana:
Temperatura: 14.1 °C 0.8 °C 7.2 °C
Rosada: 5.9 °C -0.6 °C 3 °C
Humitat: 91 % 50 % 76 %
Velocitat del vent: 20.9 km/h 0.0 km/h 1.3 km/h
Racha vent: 20.9 km/h - -
Vent:- - West
Pressio: 1027.7 hPa 1022.9 hPa -
Pluja: 0.0 mm    
Historical Graphs
 
 
Tabular Data for Gener 29, 2017
Time Temperature Dew Point Pressure Wind Wind Speed Wind Gust Humidity Rainfall Rate (Hourly) solar Conditions
00:02 7.3 °C 1.9 °C 1026.0 hPa West 18.5 km/h 18.5 km/h 69 % 0.0 mm 0.0 W/m2 RA
00:07 7.3 °C 1.8 °C 1026.0 hPa West 18.5 km/h 18.5 km/h 68 % 0.0 mm 0.0 W/m2 CLR
00:12 7.4 °C 1.9 °C 1026.0 hPa West 18.5 km/h 18.5 km/h 68 % 0.0 mm 0.0 W/m2 CLR
00:17 7.4 °C 1.9 °C 1026.0 hPa West 20.4 km/h 20.4 km/h 68 % 0.0 mm 0.0 W/m2 CLR
00:22 7.4 °C 1.9 °C 1026.0 hPa West 19.3 km/h 19.3 km/h 68 % 0.0 mm 0.0 W/m2 CLR
00:27 7.4 °C 1.7 °C 1026.0 hPa West 18.5 km/h 18.5 km/h 67 % 0.0 mm 0.0 W/m2 CLR
00:32 7.4 °C 1.7 °C 1026.0 hPa West 18.5 km/h 18.5 km/h 67 % 0.0 mm 0.0 W/m2 CLR
00:37 7.4 °C 1.7 °C 1026.0 hPa West 20.9 km/h 20.9 km/h 67 % 0.0 mm 0.0 W/m2 CLR
00:42 7.5 °C 1.8 °C 1026.0 hPa West 18.5 km/h 18.5 km/h 67 % 0.0 mm 0.0 W/m2 CLR
00:47 7.4 °C 1.7 °C 1026.0 hPa West 13.0 km/h 13.0 km/h 67 % 0.0 mm 0.0 W/m2 CLR
00:52 7.4 °C 1.7 °C 1026.0 hPa West 18.5 km/h 18.5 km/h 67 % 0.0 mm 0.0 W/m2 CLR
00:57 7.4 °C 1.7 °C 1026.0 hPa West 16.7 km/h 16.7 km/h 67 % 0.0 mm 0.0 W/m2 CLR
01:02 7.4 °C 1.7 °C 1026.0 hPa West 11.1 km/h 11.1 km/h 67 % 0.0 mm 0.0 W/m2 CLR
01:07 7.1 °C 1.6 °C 1026.0 hPa Calm     68 % 0.0 mm 0.0 W/m2 CLR
01:12 6.4 °C 1.3 °C 1026.0 hPa Calm     70 % 0.0 mm 0.0 W/m2 CLR
01:17 6.0 °C 1.3 °C 1026.0 hPa WSW 7.4 km/h 7.4 km/h 72 % 0.0 mm 0.0 W/m2 CLR
01:22 6.1 °C 1.4 °C 1026.0 hPa Calm     72 % 0.0 mm 0.0 W/m2 CLR
01:27 5.6 °C 1.1 °C 1026.0 hPa WSW 7.4 km/h 7.4 km/h 73 % 0.0 mm 0.0 W/m2 CLR
01:32 5.2 °C 1.1 °C 1026.0 hPa WSW 13.0 km/h 13.0 km/h 75 % 0.0 mm 0.0 W/m2 CLR
01:37 5.2 °C 1.3 °C 1026.0 hPa WSW 13.0 km/h 13.0 km/h 76 % 0.0 mm 0.0 W/m2 CLR
01:42 5.5 °C 1.4 °C 1026.0 hPa West 13.0 km/h 13.0 km/h 75 % 0.0 mm 0.0 W/m2 CLR
01:47 5.8 °C 1.4 °C 1026.0 hPa WSW 9.7 km/h 9.7 km/h 73 % 0.0 mm 0.0 W/m2 CLR
01:52 5.9 °C 1.3 °C 1026.0 hPa WSW 7.4 km/h 7.4 km/h 72 % 0.0 mm 0.0 W/m2 CLR
01:57 5.8 °C 1.3 °C 1026.0 hPa Calm     73 % 0.0 mm 0.0 W/m2 CLR
02:02 5.5 °C 1.2 °C 1026.0 hPa Calm     74 % 0.0 mm 0.0 W/m2 CLR
02:07 5.2 °C 1.2 °C 1026.0 hPa Calm     75 % 0.0 mm 0.0 W/m2 CLR
02:12 4.9 °C 1.0 °C 1026.0 hPa Calm     76 % 0.0 mm 0.0 W/m2 CLR
02:17 4.7 °C 0.8 °C 1026.0 hPa Calm     76 % 0.0 mm 0.0 W/m2 CLR
02:22 4.6 °C 0.9 °C 1026.0 hPa Calm     77 % 0.0 mm 0.0 W/m2 CLR
02:27 4.5 °C 0.8 °C 1026.0 hPa Calm     77 % 0.0 mm 0.0 W/m2 CLR
02:32 4.4 °C 0.9 °C 1026.0 hPa Calm     78 % 0.0 mm 0.0 W/m2 CLR
02:37 4.2 °C 0.7 °C 1026.0 hPa Calm     78 % 0.0 mm 0.0 W/m2 CLR
02:43 4.1 °C 0.7 °C 1026.0 hPa Calm     79 % 0.0 mm 0.0 W/m2 CLR
02:48 4.0 °C 0.7 °C 1026.3 hPa Calm     79 % 0.0 mm 0.0 W/m2 CLR
02:53 3.9 °C 0.8 °C 1026.3 hPa Calm     80 % 0.0 mm 0.0 W/m2 CLR
02:58 3.8 °C 0.7 °C 1026.3 hPa Calm     80 % 0.0 mm 0.0 W/m2 CLR
03:03 3.7 °C 0.6 °C 1026.3 hPa Calm     80 % 0.0 mm 0.0 W/m2 CLR
03:08 3.6 °C 0.5 °C 1026.0 hPa Calm     80 % 0.0 mm 0.0 W/m2 CLR
03:13 3.5 °C 0.6 °C 1026.3 hPa Calm     81 % 0.0 mm 0.0 W/m2 CLR
03:18 3.4 °C 0.7 °C 1026.3 hPa Calm     82 % 0.0 mm 0.0 W/m2 CLR
03:23 3.4 °C 0.6 °C 1026.3 hPa Calm     82 % 0.0 mm 0.0 W/m2 CLR
03:28 3.3 °C 0.5 °C 1026.3 hPa Calm     82 % 0.0 mm 0.0 W/m2 CLR
03:33 3.1 °C 0.5 °C 1026.3 hPa Calm     83 % 0.0 mm 0.0 W/m2 CLR
03:38 3.1 °C 0.4 °C 1026.3 hPa Calm     83 % 0.0 mm 0.0 W/m2 CLR
03:43 3.0 °C 0.4 °C 1026.3 hPa Calm     83 % 0.0 mm 0.0 W/m2 CLR
03:48 3.0 °C 0.4 °C 1026.3 hPa Calm     83 % 0.0 mm 0.0 W/m2 CLR
03:53 2.9 °C 0.5 °C 1026.3 hPa Calm     84 % 0.0 mm 0.0 W/m2 CLR
03:58 2.9 °C 0.5 °C 1026.3 hPa Calm     84 % 0.0 mm 0.0 W/m2 CLR
04:03 2.8 °C 0.2 °C 1026.3 hPa Calm     83 % 0.0 mm 0.0 W/m2 CLR
04:08 2.7 °C 0.2 °C 1026.3 hPa Calm     84 % 0.0 mm 0.0 W/m2 CLR
04:13 2.6 °C 0.1 °C 1026.3 hPa Calm     84 % 0.0 mm 0.0 W/m2 CLR
04:18 2.4 °C 0.2 °C 1026.3 hPa Calm     85 % 0.0 mm 0.0 W/m2 CLR
04:23 2.4 °C 0.1 °C 1026.3 hPa Calm     85 % 0.0 mm 0.0 W/m2 CLR
04:28 2.3 °C 0.0 °C 1026.3 hPa Calm     85 % 0.0 mm 0.0 W/m2 CLR
04:33 2.1 °C 0.0 °C 1026.3 hPa Calm     86 % 0.0 mm 0.0 W/m2 CLR
04:38 2.0 °C -0.1 °C 1026.3 hPa Calm     86 % 0.0 mm 0.0 W/m2 CLR
04:43 2.0 °C 0.1 °C 1026.3 hPa Calm     87 % 0.0 mm 0.0 W/m2 CLR
04:48 1.9 °C 0.0 °C 1026.6 hPa Calm     87 % 0.0 mm 0.0 W/m2 CLR
04:53 1.9 °C 0.0 °C 1026.6 hPa Calm     87 % 0.0 mm 0.0 W/m2 CLR
04:58 1.9 °C 0.2 °C 1026.6 hPa Calm     88 % 0.0 mm 0.0 W/m2 CLR
05:03 1.9 °C 0.0 °C 1026.6 hPa Calm     87 % 0.0 mm 0.0 W/m2 CLR
05:08 1.9 °C 0.1 °C 1026.6 hPa Calm     88 % 0.0 mm 0.0 W/m2 CLR
05:13 1.9 °C 0.1 °C 1026.6 hPa Calm     88 % 0.0 mm 0.0 W/m2 CLR
05:18 1.9 °C 0.1 °C 1026.6 hPa Calm     88 % 0.0 mm 0.0 W/m2 CLR
05:23 1.9 °C 0.1 °C 1026.6 hPa Calm     88 % 0.0 mm 0.0 W/m2 CLR
05:28 1.8 °C 0.1 °C 1026.6 hPa Calm     88 % 0.0 mm 0.0 W/m2 CLR
05:33 1.8 °C 0.1 °C 1026.6 hPa Calm     88 % 0.0 mm 0.0 W/m2 CLR
05:38 1.9 °C 0.3 °C 1026.6 hPa Calm     89 % 0.0 mm 0.0 W/m2 CLR
05:43 1.8 °C 0.2 °C 1026.6 hPa Calm     89 % 0.0 mm 0.0 W/m2 CLR
05:48 1.9 °C 0.3 °C 1026.6 hPa Calm     89 % 0.0 mm 0.0 W/m2 CLR
05:53 1.9 °C 0.3 °C 1026.6 hPa Calm     89 % 0.0 mm 0.0 W/m2 CLR
05:58 1.9 °C 0.1 °C 1026.6 hPa Calm     88 % 0.0 mm 0.0 W/m2 CLR
06:03 1.8 °C 0.1 °C 1026.6 hPa Calm     88 % 0.0 mm 0.0 W/m2 CLR
06:08 1.8 °C 0.0 °C 1026.6 hPa Calm     88 % 0.0 mm 0.0 W/m2 CLR
06:13 1.7 °C -0.1 °C 1026.6 hPa Calm     88 % 0.0 mm 0.0 W/m2 CLR
06:18 1.6 °C -0.1 °C 1026.6 hPa Calm     89 % 0.0 mm 0.0 W/m2 CLR
06:23 1.6 °C -0.1 °C 1026.6 hPa Calm     89 % 0.0 mm 0.0 W/m2 CLR
06:28 1.6 °C -0.1 °C 1026.6 hPa Calm     89 % 0.0 mm 0.0 W/m2 CLR
06:33 1.4 °C -0.2 °C 1026.6 hPa Calm     89 % 0.0 mm 0.0 W/m2 CLR
06:38 1.4 °C -0.2 °C 1026.6 hPa Calm     89 % 0.0 mm 0.0 W/m2 CLR
06:43 1.2 °C -0.4 °C 1026.6 hPa Calm     89 % 0.0 mm 0.0 W/m2 CLR
06:48 1.1 °C -0.4 °C 1026.6 hPa Calm     90 % 0.0 mm 0.0 W/m2 CLR
06:53 1.1 °C -0.3 °C 1027.0 hPa Calm     90 % 0.0 mm 0.0 W/m2 CLR
06:58 1.2 °C -0.2 °C 1026.6 hPa Calm     90 % 0.0 mm 0.0 W/m2 CLR
07:03 1.2 °C -0.2 °C 1026.6 hPa Calm     90 % 0.0 mm 0.0 W/m2 CLR
07:08 1.2 °C -0.2 °C 1027.0 hPa Calm     90 % 0.0 mm 0.0 W/m2 CLR
07:13 1.1 °C -0.4 °C 1027.0 hPa Calm     90 % 0.0 mm 0.0 W/m2 CLR
07:18 0.9 °C -0.5 °C 1027.0 hPa Calm     90 % 0.0 mm 0.0 W/m2 CLR
07:23 0.9 °C -0.6 °C 1027.0 hPa Calm     90 % 0.0 mm 0.0 W/m2 CLR
07:28 0.9 °C -0.4 °C 1027.0 hPa Calm     91 % 0.0 mm 0.0 W/m2 CLR
07:33 0.9 °C -0.3 °C 1027.0 hPa Calm     91 % 0.0 mm 0.0 W/m2 CLR
07:38 1.0 °C -0.3 °C 1027.0 hPa Calm     91 % 0.0 mm 0.0 W/m2 CLR
07:43 1.0 °C -0.4 °C 1027.0 hPa Calm     90 % 0.0 mm 0.0 W/m2 CLR
07:48 0.8 °C -0.4 °C 1027.0 hPa Calm     91 % 0.0 mm 0.0 W/m2 CLR
07:53 0.9 °C -0.3 °C 1027.3 hPa Calm     91 % 0.0 mm 0.0 W/m2 CLR
07:58 0.9 °C -0.3 °C 1027.3 hPa Calm     91 % 0.0 mm 0.0 W/m2 CLR
07:59 0.9 °C -0.4 °C 1027.3 hPa Calm     91 % 0.0 mm 0.0 W/m2 CLR
08:04 1.0 °C -0.3 °C 1027.3 hPa Calm     91 % 0.0 mm 5.0 W/m2 OVC
08:09 1.1 °C -0.2 °C 1027.3 hPa Calm     91 % 0.0 mm 11.0 W/m2 OVC
08:14 1.2 °C -0.1 °C 1027.3 hPa Calm     91 % 0.0 mm 12.0 W/m2 OVC
08:19 1.3 °C -0.1 °C 1027.3 hPa Calm     91 % 0.0 mm 16.0 W/m2 BKN
08:24 1.3 °C 0.0 °C 1027.3 hPa Calm     91 % 0.0 mm 21.0 W/m2 BKN
08:29 1.4 °C 0.1 °C 1027.3 hPa Calm     91 % 0.0 mm 25.0 W/m2 BKN
08:34 1.6 °C 0.2 °C 1027.3 hPa Calm     91 % 0.0 mm 26.0 W/m2 BKN
08:39 1.7 °C 0.3 °C 1027.3 hPa Calm     91 % 0.0 mm 32.0 W/m2 BKN
08:44 1.8 °C 0.5 °C 1027.3 hPa Calm     91 % 0.0 mm 40.0 W/m2 BKN
08:49 2.1 °C 0.7 °C 1027.3 hPa Calm     91 % 0.0 mm 37.0 W/m2 BKN
08:54 2.2 °C 0.8 °C 1027.3 hPa Calm     91 % 0.0 mm 39.0 W/m2 BKN
08:59 2.3 °C 0.8 °C 1027.3 hPa Calm     90 % 0.0 mm 37.0 W/m2 BKN
09:04 2.3 °C 0.8 °C 1027.3 hPa Calm     90 % 0.0 mm 39.0 W/m2 BKN
09:09 2.4 °C 0.9 °C 1027.3 hPa Calm     90 % 0.0 mm 44.0 W/m2 BKN
09:14 2.4 °C 0.9 °C 1027.3 hPa Calm     90 % 0.0 mm 53.0 W/m2 BKN
09:19 2.6 °C 1.1 °C 1027.3 hPa Calm     90 % 0.0 mm 58.0 W/m2 SCT
09:24 2.6 °C 1.0 °C 1027.7 hPa Calm     89 % 0.0 mm 65.0 W/m2 SCT
09:29 2.7 °C 1.1 °C 1027.7 hPa Calm     89 % 0.0 mm 76.0 W/m2 SCT
09:34 2.6 °C 1.0 °C 1027.7 hPa Calm     89 % 0.0 mm 83.0 W/m2 FEW
09:39 2.6 °C 0.9 °C 1027.7 hPa Calm     89 % 0.0 mm 84.0 W/m2 FEW
09:44 2.6 °C 1.0 °C 1027.7 hPa Calm     89 % 0.0 mm 88.0 W/m2 FEW
09:49 2.8 °C 1.3 °C 1027.7 hPa Calm     90 % 0.0 mm 114.0 W/m2 CLR
09:54 2.8 °C 1.3 °C 1027.7 hPa Calm     90 % 0.0 mm 113.0 W/m2 CLR
09:59 2.9 °C 1.4 °C 1027.7 hPa Calm     90 % 0.0 mm 141.0 W/m2 CLR
10:04 3.3 °C 1.9 °C 1027.7 hPa Calm     91 % 0.0 mm 144.0 W/m2 CLR
10:09 3.6 °C 2.1 °C 1027.7 hPa Calm     90 % 0.0 mm 158.0 W/m2 CLR
10:14 3.9 °C 2.2 °C 1027.3 hPa Calm     89 % 0.0 mm 162.0 W/m2 CLR
10:19 4.2 °C 2.3 °C 1027.3 hPa Calm     88 % 0.0 mm 186.0 W/m2 CLR
10:24 4.4 °C 2.4 °C 1027.3 hPa Calm     87 % 0.0 mm 163.0 W/m2 CLR
10:29 4.7 °C 2.5 °C 1027.3 hPa Calm     86 % 0.0 mm 141.0 W/m2 CLR
10:34 4.9 °C 2.7 °C 1027.3 hPa Calm     86 % 0.0 mm 125.0 W/m2 CLR
10:39 5.1 °C 2.9 °C 1027.3 hPa Calm     86 % 0.0 mm 155.0 W/m2 CLR
10:45 5.3 °C 2.9 °C 1027.3 hPa Calm     85 % 0.0 mm 178.0 W/m2 CLR
10:50 5.5 °C 3.2 °C 1027.3 hPa Calm     85 % 0.0 mm 185.0 W/m2 CLR
10:55 5.7 °C 3.3 °C 1027.3 hPa Calm     85 % 0.0 mm 199.0 W/m2 CLR
11:00 5.8 °C 3.3 °C 1027.3 hPa Calm     84 % 0.0 mm 193.0 W/m2 CLR
11:05 6.1 °C 3.6 °C 1027.3 hPa Calm     84 % 0.0 mm 181.0 W/m2 CLR
11:10 6.3 °C 3.7 °C 1027.3 hPa Calm     83 % 0.0 mm 181.0 W/m2 CLR
11:15 6.6 °C 3.9 °C 1027.3 hPa Calm     83 % 0.0 mm 190.0 W/m2 CLR
11:20 6.8 °C 4.0 °C 1027.3 hPa Calm     82 % 0.0 mm 248.0 W/m2 CLR
11:25 7.1 °C 4.2 °C 1027.0 hPa Calm     82 % 0.0 mm 309.0 W/m2 CLR
11:30 7.4 °C 4.4 °C 1027.0 hPa Calm     81 % 0.0 mm 411.0 W/m2 CLR
11:35 7.9 °C 4.7 °C 1027.0 hPa Calm     80 % 0.0 mm 510.0 W/m2 CLR
11:40 8.4 °C 4.6 °C 1027.0 hPa Calm     77 % 0.0 mm 396.0 W/m2 CLR
11:45 8.7 °C 4.9 °C 1027.0 hPa Calm     77 % 0.0 mm 334.0 W/m2 CLR
11:50 9.1 °C 5.1 °C 1027.0 hPa Calm     76 % 0.0 mm 264.0 W/m2 CLR
11:55 9.3 °C 5.1 °C 1027.0 hPa Calm     75 % 0.0 mm 308.0 W/m2 CLR
12:00 9.8 °C 5.4 °C 1027.0 hPa Calm     74 % 0.0 mm 612.0 W/m2 CLR
12:05 10.3 °C 5.2 °C 1026.6 hPa Calm     71 % 0.0 mm 575.0 W/m2 CLR
12:10 10.8 °C 5.7 °C 1026.6 hPa Calm     71 % 0.0 mm 374.0 W/m2 CLR
12:15 11.1 °C 4.9 °C 1026.3 hPa Calm     66 % 0.0 mm 338.0 W/m2 CLR
12:20 11.2 °C 4.8 °C 1026.3 hPa Calm     65 % 0.0 mm 383.0 W/m2 CLR
12:25 11.3 °C 5.0 °C 1026.3 hPa Calm     65 % 0.0 mm 380.0 W/m2 CLR
12:30 11.7 °C 5.3 °C 1026.0 hPa Calm     65 % 0.0 mm 445.0 W/m2 CLR
12:35 11.8 °C 4.8 °C 1026.0 hPa Calm     62 % 0.0 mm 575.0 W/m2 CLR
12:40 11.9 °C 5.1 °C 1026.0 hPa Calm     63 % 0.0 mm 629.0 W/m2 CLR
12:45 12.1 °C 5.3 °C 1025.6 hPa Calm     63 % 0.0 mm 471.0 W/m2 CLR
12:50 12.3 °C 5.0 °C 1025.6 hPa SE 5.6 km/h 5.6 km/h 61 % 0.0 mm 448.0 W/m2 CLR
12:55 12.3 °C 5.0 °C 1025.6 hPa NW 7.4 km/h 7.4 km/h 61 % 0.0 mm 287.0 W/m2 CLR
13:00 12.1 °C 4.8 °C 1025.6 hPa Calm     61 % 0.0 mm 278.0 W/m2 CLR
13:05 12.1 °C 4.8 °C 1025.3 hPa NW 3.7 km/h 3.7 km/h 61 % 0.0 mm 313.0 W/m2 CLR
13:10 12.2 °C 5.3 °C 1025.3 hPa NW 5.6 km/h 5.6 km/h 63 % 0.0 mm 320.0 W/m2 CLR
13:15 12.1 °C 5.3 °C 1025.3 hPa NNW 9.3 km/h 9.3 km/h 63 % 0.0 mm 304.0 W/m2 CLR
13:20 12.0 °C 4.9 °C 1025.3 hPa NNW 5.6 km/h 5.6 km/h 62 % 0.0 mm 272.0 W/m2 CLR
13:25 11.9 °C 5.1 °C 1025.3 hPa North 5.6 km/h 5.6 km/h 63 % 0.0 mm 455.0 W/m2 CLR
13:30 12.1 °C 5.9 °C 1024.9 hPa Calm     66 % 0.0 mm 596.0 W/m2 CLR
13:35 12.2 °C 5.2 °C 1024.9 hPa Calm     62 % 0.0 mm 455.0 W/m2 CLR
13:40 12.3 °C 5.0 °C 1024.9 hPa Calm     61 % 0.0 mm 545.0 W/m2 CLR
13:45 12.4 °C 5.1 °C 1024.9 hPa North 11.1 km/h 11.1 km/h 61 % 0.0 mm 550.0 W/m2 CLR
13:50 12.6 °C 5.7 °C 1024.9 hPa Calm     63 % 0.0 mm 510.0 W/m2 CLR
13:55 12.6 °C 5.1 °C 1024.6 hPa Calm     60 % 0.0 mm 499.0 W/m2 CLR
14:00 12.9 °C 5.8 °C 1024.6 hPa Calm     62 % 0.0 mm 504.0 W/m2 CLR
14:05 13.2 °C 5.6 °C 1024.6 hPa Calm     60 % 0.0 mm 531.0 W/m2 CLR
14:10 13.4 °C 5.6 °C 1024.6 hPa Calm     59 % 0.0 mm 540.0 W/m2 CLR
14:15 13.7 °C 5.1 °C 1024.3 hPa Calm     56 % 0.0 mm 527.0 W/m2 CLR
14:20 13.9 °C 4.7 °C 1024.3 hPa Calm     54 % 0.0 mm 443.0 W/m2 CLR
14:25 13.9 °C 4.5 °C 1024.3 hPa WNW 5.6 km/h 5.6 km/h 53 % 0.0 mm 517.0 W/m2 CLR
14:30 13.7 °C 5.1 °C 1023.9 hPa Calm     56 % 0.0 mm 490.0 W/m2 CLR
14:35 13.8 °C 4.6 °C 1023.9 hPa NW 3.7 km/h   54 % 0.0 mm 376.0 W/m2 CLR
14:40 14.0 °C 5.3 °C 1023.9 hPa Calm     56 % 0.0 mm 274.0 W/m2 CLR
14:45 13.9 °C 4.4 °C 1023.9 hPa Calm     53 % 0.0 mm 504.0 W/m2 CLR
14:50 14.0 °C 4.6 °C 1023.6 hPa Calm     53 % 0.0 mm 510.0 W/m2 CLR
14:55 14.1 °C 4.9 °C 1023.6 hPa Calm     54 % 0.0 mm 443.0 W/m2 CLR
15:00 13.9 °C 4.2 °C 1023.6 hPa Calm     52 % 0.0 mm 243.0 W/m2 CLR
15:05 13.7 °C 4.3 °C 1023.6 hPa Calm     53 % 0.0 mm 232.0 W/m2 CLR
15:10 13.6 °C 4.2 °C 1023.6 hPa Calm     53 % 0.0 mm 218.0 W/m2 CLR
15:15 13.7 °C 4.1 °C 1023.6 hPa Calm     52 % 0.0 mm 234.0 W/m2 CLR
15:20 13.9 °C 4.8 °C 1023.6 hPa Calm     54 % 0.0 mm 295.0 W/m2 CLR
15:25 14.1 °C 4.3 °C 1023.6 hPa Calm     52 % 0.0 mm 230.0 W/m2 CLR
15:30 14.1 °C 4.1 °C 1023.6 hPa Calm     51 % 0.0 mm 111.0 W/m2 CLR
15:35 14.1 °C 3.8 °C 1023.6 hPa Calm     50 % 0.0 mm 95.0 W/m2 CLR
15:40 14.0 °C 4.3 °C 1023.6 hPa Calm     52 % 0.0 mm 118.0 W/m2 CLR
15:45 13.8 °C 3.8 °C 1023.6 hPa Calm     51 % 0.0 mm 169.0 W/m2 CLR
15:50 13.8 °C 4.1 °C 1023.6 hPa Calm     52 % 0.0 mm 114.0 W/m2 CLR
15:55 13.7 °C 4.3 °C 1023.6 hPa Calm     53 % 0.0 mm 109.0 W/m2 CLR
16:00 13.5 °C 4.1 °C 1023.6 hPa Calm     53 % 0.0 mm 151.0 W/m2 CLR
16:05 13.4 °C 4.0 °C 1023.2 hPa Calm     53 % 0.0 mm 153.0 W/m2 CLR
16:10 13.3 °C 3.9 °C 1023.2 hPa Calm     53 % 0.0 mm 130.0 W/m2 CLR
16:15 13.2 °C 3.8 °C 1023.2 hPa Calm     53 % 0.0 mm 121.0 W/m2 CLR
16:20 13.2 °C 3.8 °C 1023.2 hPa Calm     53 % 0.0 mm 91.0 W/m2 CLR
16:25 13.2 °C 4.1 °C 1023.2 hPa Calm     54 % 0.0 mm 79.0 W/m2 CLR
16:30 13.3 °C 4.7 °C 1023.2 hPa Calm     56 % 0.0 mm 211.0 W/m2 CLR
16:35 13.4 °C 5.3 °C 1023.2 hPa Calm     58 % 0.0 mm 229.0 W/m2 CLR
16:40 13.5 °C 5.2 °C 1023.2 hPa Calm     57 % 0.0 mm 197.0 W/m2 CLR
16:45 13.5 °C 5.2 °C 1023.2 hPa NE 3.2 km/h 3.2 km/h 57 % 0.0 mm 188.0 W/m2 CLR
16:50 13.4 °C 5.3 °C 1023.2 hPa Calm     58 % 0.0 mm 171.0 W/m2 CLR
16:55 13.3 °C 5.5 °C 1023.2 hPa Calm     59 % 0.0 mm 155.0 W/m2 CLR
17:00 13.3 °C 5.4 °C 1023.2 hPa Calm     59 % 0.0 mm 141.0 W/m2 CLR
17:05 13.3 °C 5.7 °C 1023.2 hPa Calm     60 % 0.0 mm 123.0 W/m2 CLR
17:11 13.2 °C 5.4 °C 1023.2 hPa Calm     59 % 0.0 mm 105.0 W/m2 CLR
17:16 13.2 °C 5.1 °C 1023.2 hPa Calm     58 % 0.0 mm 72.0 W/m2 CLR
17:21 13.2 °C 4.9 °C 1022.9 hPa Calm     57 % 0.0 mm 39.0 W/m2 BKN
17:26 13.1 °C 4.5 °C 1023.2 hPa Calm     56 % 0.0 mm 21.0 W/m2 BKN
17:31 12.9 °C 4.9 °C 1023.2 hPa Calm     58 % 0.0 mm 32.0 W/m2 BKN
17:36 12.8 °C 4.9 °C 1023.2 hPa Calm     59 % 0.0 mm 19.0 W/m2 BKN
17:41 12.6 °C 5.0 °C 1023.2 hPa Calm     60 % 0.0 mm 16.0 W/m2 BKN
17:46 12.4 °C 4.8 °C 1023.2 hPa Calm     60 % 0.0 mm 12.0 W/m2 BKN
17:51 12.3 °C 4.9 °C 1023.2 hPa Calm     61 % 0.0 mm 9.0 W/m2 BKN
17:56 12.1 °C 4.8 °C 1023.2 hPa Calm     61 % 0.0 mm 9.0 W/m2 BKN
18:01 11.9 °C 4.9 °C 1023.2 hPa Calm     62 % 0.0 mm 7.0 W/m2 BKN
18:06 11.8 °C 4.9 °C 1023.2 hPa Calm     63 % 0.0 mm 7.0 W/m2 BKN
18:11 11.6 °C 5.0 °C 1023.2 hPa Calm     64 % 0.0 mm 0.0 W/m2 OVC
18:16 11.4 °C 4.9 °C 1023.2 hPa Calm     64 % 0.0 mm 0.0 W/m2 OVC
18:21 11.3 °C 5.0 °C 1023.2 hPa Calm     65 % 0.0 mm 0.0 W/m2 OVC
18:26 11.2 °C 5.1 °C 1023.2 hPa Calm     66 % 0.0 mm 0.0 W/m2 CLR
18:31 10.9 °C 5.0 °C 1023.2 hPa Calm     67 % 0.0 mm 0.0 W/m2 CLR
18:36 10.7 °C 5.1 °C 1023.6 hPa Calm     68 % 0.0 mm 0.0 W/m2 CLR
18:41 10.7 °C 5.2 °C 1023.6 hPa Calm     69 % 0.0 mm 0.0 W/m2 CLR
18:46 10.5 °C 5.1 °C 1023.6 hPa Calm     69 % 0.0 mm 0.0 W/m2 CLR
18:51 10.4 °C 5.2 °C 1023.6 hPa Calm     70 % 0.0 mm 0.0 W/m2 CLR
18:56 10.2 °C 5.3 °C 1023.2 hPa Calm     72 % 0.0 mm 0.0 W/m2 CLR
19:01 9.7 °C 5.1 °C 1023.6 hPa Calm     73 % 0.0 mm 0.0 W/m2 CLR
19:06 9.5 °C 5.1 °C 1023.6 hPa Calm     74 % 0.0 mm 0.0 W/m2 CLR
19:11 9.5 °C 5.1 °C 1023.6 hPa Calm     74 % 0.0 mm 0.0 W/m2 CLR
19:16 9.4 °C 5.2 °C 1023.6 hPa Calm     75 % 0.0 mm 0.0 W/m2 CLR
19:21 9.3 °C 5.1 °C 1023.9 hPa Calm     75 % 0.0 mm 0.0 W/m2 CLR
19:26 9.0 °C 5.2 °C 1023.9 hPa Calm     77 % 0.0 mm 0.0 W/m2 CLR
19:31 8.7 °C 5.1 °C 1023.9 hPa Calm     78 % 0.0 mm 0.0 W/m2 CLR
19:36 8.6 °C 5.1 °C 1023.9 hPa Calm     79 % 0.0 mm 0.0 W/m2 CLR
19:41 8.5 °C 5.2 °C 1023.9 hPa Calm     80 % 0.0 mm 0.0 W/m2 CLR
19:46 8.5 °C 5.2 °C 1023.9 hPa Calm     80 % 0.0 mm 0.0 W/m2 CLR
19:51 8.4 °C 5.1 °C 1023.9 hPa Calm     80 % 0.0 mm 0.0 W/m2 CLR
19:56 8.3 °C 5.2 °C 1023.9 hPa Calm     81 % 0.0 mm 0.0 W/m2 CLR
20:01 8.2 °C 5.1 °C 1023.9 hPa Calm     81 % 0.0 mm 0.0 W/m2 CLR
20:06 8.2 °C 5.1 °C 1024.3 hPa Calm     81 % 0.0 mm 0.0 W/m2 CLR
20:11 8.1 °C 5.2 °C 1024.3 hPa Calm     82 % 0.0 mm 0.0 W/m2 CLR
20:16 8.1 °C 5.2 °C 1024.3 hPa Calm     82 % 0.0 mm 0.0 W/m2 CLR
20:21 8.2 °C 5.3 °C 1024.3 hPa Calm     82 % 0.0 mm 0.0 W/m2 CLR
20:22 8.1 °C 5.4 °C 1024.3 hPa Calm     83 % 0.0 mm 0.0 W/m2 CLR
20:27 8.1 °C 5.4 °C 1024.3 hPa Calm     83 % 0.0 mm 0.0 W/m2 CLR
20:32 8.1 °C 5.4 °C 1024.3 hPa Calm     83 % 0.0 mm 0.0 W/m2 CLR
20:37 8.0 °C 5.3 °C 1024.3 hPa Calm     83 % 0.0 mm 0.0 W/m2 CLR
20:42 7.9 °C 5.2 °C 1024.3 hPa Calm     83 % 0.0 mm 0.0 W/m2 CLR
20:47 7.9 °C 5.4 °C 1024.3 hPa Calm     84 % 0.0 mm 0.0 W/m2 CLR
20:52 7.9 °C 5.4 °C 1024.6 hPa Calm     84 % 0.0 mm 0.0 W/m2 CLR
20:57 8.0 °C 5.4 °C 1024.6 hPa Calm     84 % 0.0 mm 0.0 W/m2 CLR
21:02 8.1 °C 5.5 °C 1024.6 hPa Calm     84 % 0.0 mm 0.0 W/m2 CLR
21:07 8.0 °C 5.4 °C 1024.6 hPa Calm     84 % 0.0 mm 0.0 W/m2 CLR
21:12 8.0 °C 5.4 °C 1024.6 hPa Calm     84 % 0.0 mm 0.0 W/m2 CLR
21:17 7.9 °C 5.4 °C 1024.6 hPa Calm     84 % 0.0 mm 0.0 W/m2 CLR
21:22 7.9 °C 5.2 °C 1024.6 hPa Calm     83 % 0.0 mm 0.0 W/m2 CLR
21:27 7.9 °C 5.3 °C 1024.6 hPa Calm     84 % 0.0 mm 0.0 W/m2 CLR
21:33 7.8 °C 5.4 °C 1024.6 hPa Calm     85 % 0.0 mm 0.0 W/m2 CLR
21:38 7.9 °C 5.5 °C 1024.9 hPa Calm     85 % 0.0 mm 0.0 W/m2 CLR
21:43 7.9 °C 5.6 °C 1024.9 hPa Calm     85 % 0.0 mm 0.0 W/m2 CLR
21:48 7.9 °C 5.6 °C 1024.6 hPa Calm     85 % 0.0 mm 0.0 W/m2 CLR
21:53 7.9 °C 5.4 °C 1024.9 hPa Calm     84 % 0.0 mm 0.0 W/m2 CLR
21:58 7.9 °C 5.3 °C 1024.6 hPa Calm     84 % 0.0 mm 0.0 W/m2 CLR
22:03 7.9 °C 5.3 °C 1024.9 hPa Calm     84 % 0.0 mm 0.0 W/m2 CLR
22:08 7.9 °C 5.5 °C 1024.9 hPa Calm     85 % 0.0 mm 0.0 W/m2 CLR
22:13 7.9 °C 5.5 °C 1024.9 hPa Calm     85 % 0.0 mm 0.0 W/m2 CLR
22:18 7.8 °C 5.4 °C 1024.6 hPa Calm     85 % 0.0 mm 0.0 W/m2 CLR
22:23 7.8 °C 5.4 °C 1024.6 hPa Calm     85 % 0.0 mm 0.0 W/m2 CLR
22:28 7.8 °C 5.4 °C 1024.6 hPa Calm     85 % 0.0 mm 0.0 W/m2 CLR
22:33 7.7 °C 5.3 °C 1024.6 hPa Calm     85 % 0.0 mm 0.0 W/m2 CLR
22:38 7.7 °C 5.3 °C 1024.6 hPa Calm     85 % 0.0 mm 0.0 W/m2 CLR
22:43 7.7 °C 5.3 °C 1024.6 hPa Calm     85 % 0.0 mm 0.0 W/m2 CLR
22:48 7.7 °C 5.3 °C 1024.6 hPa Calm     85 % 0.0 mm 0.0 W/m2 CLR
22:53 7.7 °C 5.3 °C 1024.6 hPa Calm     85 % 0.0 mm 0.0 W/m2 CLR
22:58 7.6 °C 5.2 °C 1024.6 hPa Calm     85 % 0.0 mm 0.0 W/m2 CLR
23:03 7.6 °C 5.2 °C 1024.6 hPa Calm     85 % 0.0 mm 0.0 W/m2 CLR
23:08 7.6 °C 5.2 °C 1024.6 hPa Calm     85 % 0.0 mm 0.0 W/m2 CLR
23:13 7.5 °C 5.2 °C 1024.6 hPa Calm     85 % 0.0 mm 0.0 W/m2 CLR
23:18 7.5 °C 5.3 °C 1024.6 hPa Calm     86 % 0.0 mm 0.0 W/m2 CLR
23:23 7.6 °C 5.2 °C 1024.6 hPa Calm     85 % 0.0 mm 0.0 W/m2 CLR
23:28 7.7 °C 5.3 °C 1024.6 hPa Calm     85 % 0.0 mm 0.0 W/m2 CLR
23:33 7.7 °C 5.3 °C 1024.6 hPa Calm     85 % 0.0 mm 0.0 W/m2 CLR
23:38 7.8 °C 5.4 °C 1024.9 hPa Calm     85 % 0.0 mm 0.0 W/m2 CLR
23:43 7.8 °C 5.4 °C 1024.6 hPa Calm     85 % 0.0 mm 0.0 W/m2 CLR
23:48 7.9 °C 5.3 °C 1024.6 hPa Calm     84 % 0.0 mm 0.0 W/m2 CLR
23:53 7.9 °C 5.3 °C 1024.9 hPa Calm     84 % 0.0 mm 0.0 W/m2 CLR
23:58 7.8 °C 5.4 °C 1024.6 hPa Calm     85 % 0.0 mm 0.0 W/m2 CLR
Lo Temps de Massalio
Compliments of Weather Underground - 1.25 mb